Theta_e
309 312 312 310 309 312 312 312 312 308 305 307 307 307 309 308 301 302 300 296 295 295 295 291 292 291 290 291 290 290 290 290 289 289 288 287 287 286 286 286 286 285 284 283
311 312 310 309 308 309 309 310 309 306 305 304 305 307 307 307 307 308 304 299 297 295 291 289 289 289 289 290 290 290 289 289 289 288 287 286 285 285 286 285 285 284 283 283
310 311 307 310 308 309 307 308 308 309 304 302 301 305 303 303 303 303 302 301 298 296 293 290 289 288 289 289 290 289 289 288 288 287 286 285 284 284 284 285 284 283 283 283
310 308 310 309 309 307 311 306 307 307 306 309 303 311 305 305 305 304 303 299 299 296 294 291 289 288 287 289 290 289 288 287 287 286 286 285 283 282 283 282 281 282 282 282
311 307 308 309 309 306 310 304 304 304 304 302 304 304 307 299 304 306 305 300 298 295 293 291 290 289 287 289 289 289 288 287 286 285 285 284 282 281 281 280 280 280 281 281
308 305 305 308 303 304 302 303 301 297 299 306 307 307 306 303 304 304 302 301 298 294 291 291 290 289 287 289 289 288 288 286 285 285 284 282 281 281 280 279 278 278 278 279
310 306 304 304 307 305 304 308 311 310 307 312 299 301 308 304 301 303 304 302 296 293 289 289 289 288 288 287 288 287 287 286 285 284 283 281 280 279 278 278 277 277 278 278
312 312 304 303 309 309 304 308 312 310 308 308 297 306 308 301 303 299 296 295 292 292 289 289 288 288 288 287 287 287 286 285 284 283 282 281 279 279 278 277 276 276 276 275
311 312 303 303 303 305 304 306 306 305 288 303 308 306 304 302 300 297 295 292 292 292 288 288 288 288 288 287 287 287 286 285 284 282 281 280 279 278 277 277 276 275 275 274
311 314 305 300 300 298 302 301 306 305 310 305 308 308 309 306 305 302 299 296 295 292 288 288 288 287 287 287 287 286 286 285 283 281 280 279 278 277 277 276 275 275 275 274
309 313 308 301 302 303 301 302 301 304 305 307 307 309 304 305 304 303 303 298 295 292 289 288 287 287 286 286 286 285 284 282 281 279 278 278 277 277 276 275 276 274 273 273
307 311 315 307 299 298 300 304 304 308 308 302 304 310 304 306 303 302 302 298 294 291 289 287 286 286 285 285 284 283 282 281 280 279 278 277 276 275 275 275 274 273 272 272
306 310 314 314 303 299 301 300 302 301 301 308 307 310 305 302 301 300 299 296 294 292 287 286 285 285 286 284 282 282 281 280 278 277 276 276 275 275 274 273 273 273 272 271
309 309 314 311 309 303 303 300 302 304 309 309 308 308 308 308 306 304 298 293 294 291 289 286 286 286 286 283 281 281 279 278 276 275 275 275 274 273 273 272 272 271 270 269
307 312 311 311 310 305 304 304 304 304 306 308 309 307 308 308 308 307 307 306 301 291 287 286 286 286 284 281 280 279 278 276 275 275 274 274 273 271 271 271 270 270 269 268
302 310 309 312 309 306 307 306 308 306 306 305 305 305 306 307 307 307 306 305 304 297 291 288 286 285 282 282 278 277 275 274 274 274 274 272 271 271 270 269 268 268 268 267
304 308 308 313 309 308 308 309 309 308 308 308 309 308 306 306 306 306 305 305 305 303 292 288 286 285 283 281 278 275 274 273 273 273 272 270 270 269 269 268 267 267 267 265
310 308 309 311 309 312 310 307 306 306 307 306 307 308 308 308 307 307 303 304 304 299 291 287 285 284 281 277 276 275 273 273 272 271 270 269 268 268 267 267 267 267 265 265
309 310 312 312 312 310 309 307 304 305 306 306 306 306 306 306 301 304 299 297 300 297 289 286 284 280 275 274 274 273 272 271 270 269 268 268 268 267 267 267 266 266 264 264
309 309 311 312 313 314 309 307 306 301 308 307 307 307 307 305 305 307 303 296 291 287 284 281 277 275 274 272 273 272 270 270 268 268 267 267 267 266 266 266 265 265 265 263
305 310 311 312 313 312 309 306 301 309 310 309 307 306 306 305 306 303 287 285 284 282 279 277 275 274 272 271 272 271 269 268 268 267 267 266 266 266 266 265 265 265 264 263
312 310 311 312 313 314 307 303 307 309 309 308 308 303 303 303 304 292 286 282 280 278 277 275 274 272 270 271 271 269 268 267 266 266 266 266 266 266 266 265 265 265 263 262
313 311 313 311 311 306 306 308 307 308 308 308 305 301 303 302 298 288 284 280 278 278 276 275 272 270 269 270 271 269 266 266 265 265 265 266 265 266 265 265 264 262 262 263
310 309 311 311 310 306 303 305 306 306 306 306 301 300 297 299 292 287 283 281 278 276 275 273 271 270 268 268 269 269 265 265 265 264 264 264 265 265 265 265 263 262 263 264
312 309 311 311 309 309 308 307 305 304 300 297 297 298 298 295 291 288 283 280 278 276 274 272 272 270 267 266 266 265 265 264 263 263 263 263 263 264 264 263 263 262 264 267
306 308 309 311 310 310 310 308 307 306 306 304 302 297 293 295 294 287 284 280 278 276 274 273 272 269 266 264 263 263 264 264 263 262 262 262 261 261 261 262 263 263 264 265
Wind_Speed
1 2 9 12 8 2 3 4 7 5 4 4 10 15 19 19 9 15 15 12 16 20 17 24 33 33 29 27 25 21 19 15 13 12 10 8 8 8 7 11 11 15 17 18
3 11 9 5 4 5 4 4 7 7 1 6 9 17 17 16 20 18 18 13 16 12 11 20 28 33 33 32 28 23 20 18 17 16 11 8 8 8 11 13 14 16 17 19
8 4 6 6 4 6 5 6 5 8 5 3 7 9 7 6 6 13 11 11 12 17 17 17 25 32 35 35 31 27 23 19 17 15 12 9 9 10 14 13 18 18 19 20
7 2 7 4 6 8 4 6 2 3 3 4 4 14 3 6 11 8 9 10 13 14 13 16 23 28 32 37 33 28 24 19 17 16 13 11 11 11 13 16 19 20 19 20
8 7 5 5 8 9 6 3 4 1 3 3 4 5 4 4 8 16 10 9 10 11 15 17 21 33 34 39 36 30 25 18 15 14 13 12 13 13 16 18 20 21 21 22
6 1 6 6 3 2 6 4 4 3 2 2 8 9 6 6 9 9 7 6 7 8 11 12 23 27 31 39 37 31 27 18 14 13 12 12 13 14 16 17 18 19 21 24
1 5 3 3 5 3 2 5 4 5 2 8 4 2 15 6 11 12 11 7 7 7 9 12 15 21 28 35 37 33 29 22 16 13 11 12 13 13 15 17 19 21 23 25
5 11 9 6 8 8 7 9 6 9 4 15 2 8 10 15 13 7 7 7 6 7 9 13 16 24 29 32 36 34 29 21 16 13 12 11 11 12 14 18 19 21 23 25
8 9 2 2 3 3 6 6 2 5 2 3 6 14 6 7 10 7 10 7 11 9 10 12 13 24 27 31 35 35 30 21 17 12 9 10 11 12 16 19 21 22 25 25
6 5 3 3 3 1 5 5 3 2 3 6 12 22 18 10 15 11 11 15 13 7 9 10 12 21 25 30 36 34 30 22 14 10 9 8 10 13 16 19 21 23 26 26
6 7 3 4 10 13 4 4 2 2 4 6 10 19 5 7 10 11 14 9 10 9 10 12 12 20 25 29 35 34 27 18 13 9 7 8 10 12 15 18 21 23 24 26
7 5 8 14 1 1 3 11 13 6 8 5 2 25 2 1 7 7 8 8 6 7 10 11 12 19 24 30 32 32 24 18 13 10 7 7 9 11 14 18 20 21 23 25
9 4 2 8 2 4 6 8 8 2 1 21 7 25 5 7 8 9 8 8 9 9 9 9 11 16 25 27 27 31 25 19 14 10 6 6 8 11 14 17 20 21 23 23
14 7 11 21 18 6 6 8 18 21 16 17 27 34 38 32 21 13 8 10 13 12 13 12 12 15 22 23 27 30 23 18 14 9 6 4 8 11 15 17 19 20 22 23
8 10 12 21 25 6 4 8 18 20 31 21 28 22 38 32 21 25 19 21 12 11 12 15 15 15 16 21 26 27 23 18 13 9 5 5 8 11 14 16 17 19 21 22
1 9 6 23 23 6 6 20 26 24 34 21 22 32 43 28 22 27 25 22 21 14 15 15 15 14 16 26 26 26 24 18 14 9 6 5 7 11 14 15 18 20 21 22
7 8 9 24 22 11 5 36 29 33 35 22 28 41 31 28 26 31 26 24 25 19 12 14 17 18 20 27 30 27 25 18 13 9 4 4 8 11 14 16 18 19 22 22
19 16 11 16 8 17 21 20 24 31 31 20 28 32 30 31 28 29 11 20 17 12 10 12 13 13 24 27 31 31 24 18 13 7 2 3 7 11 13 16 19 21 22 21
26 20 10 9 15 19 13 20 12 15 21 31 18 28 32 28 7 29 13 14 21 12 9 10 20 26 28 31 33 29 22 16 11 6 2 2 6 11 14 18 19 20 22 26
26 27 17 12 9 13 21 34 22 4 20 39 30 32 33 13 9 22 8 6 6 7 11 15 24 28 30 29 32 27 19 15 10 7 4 1 4 9 13 15 19 22 25 23
6 11 24 24 18 11 15 16 7 7 26 32 15 24 23 15 17 13 8 5 6 9 14 23 25 25 27 31 30 21 18 14 11 7 3 2 4 8 11 16 18 21 25 24
19 11 9 13 13 19 19 8 19 31 32 23 22 10 9 15 17 7 6 10 13 17 18 24 22 23 26 31 30 21 16 14 10 6 4 2 4 7 10 15 19 22 23 22
18 20 21 16 9 8 11 24 30 30 26 24 8 7 17 13 11 10 9 11 12 15 15 26 24 24 21 26 29 23 21 18 14 10 6 3 4 7 9 14 18 19 19 18
15 22 19 24 24 13 12 17 20 24 27 28 8 6 9 15 10 11 12 12 13 13 14 22 25 20 20 22 23 23 21 18 16 14 10 5 5 9 12 14 14 16 16 19
4 1 14 21 23 25 25 21 22 19 9 9 7 9 17 12 11 13 13 16 16 18 20 25 22 20 21 24 25 23 20 18 17 14 11 7 7 10 13 13 13 12 14 18
21 23 19 24 24 22 29 21 21 23 21 20 18 13 14 17 16 16 14 15 18 20 23 20 22 22 22 22 23 20 19 17 17 15 11 10 8 10 11 15 20 11 12 16
Wind_Direction
7 119 214 212 201 175 170 201 235 251 232 219 245 251 258 272 241 254 242 211 213 221 215 200 200 195 191 189 188 190 192 198 208 216 237 249 253 288 286 307 300 308 311 322
56 231 204 139 152 159 170 212 259 283 223 194 271 261 263 251 258 255 251 226 223 217 189 192 191 193 193 191 192 189 194 201 208 215 230 253 277 290 289 290 294 305 311 321
173 226 106 135 150 165 206 194 231 237 333 249 301 265 236 286 251 267 239 226 212 211 202 193 190 192 193 194 192 193 195 200 206 211 226 246 268 272 282 288 297 306 313 316
227 224 159 164 213 151 229 209 222 288 16 257 18 294 215 242 273 257 246 208 222 206 203 196 192 191 193 195 197 197 196 198 202 207 220 239 250 264 284 288 295 301 308 313
237 165 163 186 218 162 225 127 141 124 216 12 244 267 225 12 272 264 264 225 219 205 197 196 194 196 193 195 197 198 198 200 201 210 226 241 254 271 281 288 296 304 311 317
255 346 170 199 70 139 135 97 70 65 105 259 226 202 168 184 210 255 258 234 222 199 201 199 196 193 191 195 198 197 197 199 205 215 226 242 257 271 283 295 296 304 314 317
261 212 171 160 100 24 105 71 324 315 338 247 135 238 257 234 228 220 231 231 220 213 194 187 184 189 191 191 195 196 196 197 204 217 234 246 260 274 290 300 305 312 316 317
186 265 178 185 197 180 174 167 170 242 239 286 55 243 272 220 239 217 251 259 245 220 200 200 197 193 194 189 191 195 197 198 206 219 235 256 272 286 296 306 310 308 313 314
182 267 112 195 145 147 182 190 170 98 137 309 243 264 281 225 253 246 241 231 244 225 204 207 199 199 193 187 192 195 197 199 206 220 246 270 290 304 309 313 315 319 322 316
219 278 187 149 135 70 176 157 84 4 257 253 267 274 272 217 236 232 244 228 235 221 204 205 202 197 196 190 191 198 199 200 199 213 238 269 293 306 315 319 323 322 314 312
160 183 214 133 206 176 142 198 192 169 164 200 268 269 194 204 202 212 236 225 213 215 208 208 202 197 194 188 190 193 191 189 196 211 237 270 295 311 322 320 318 314 311 310
205 169 225 227 353 113 184 197 179 197 230 240 215 268 60 220 193 219 246 224 214 216 212 203 194 188 186 188 188 186 184 186 194 205 231 269 302 317 321 315 315 312 310 308
175 220 255 261 355 358 212 197 215 256 269 231 199 258 160 203 230 211 234 230 238 227 212 193 186 194 196 188 177 181 183 183 191 204 227 278 307 313 312 312 311 314 311 306
167 175 207 237 249 132 189 199 214 217 240 237 233 259 275 259 271 262 241 234 232 220 214 201 202 204 197 183 171 178 179 181 184 194 216 270 299 303 307 314 314 315 312 306
174 236 230 251 261 226 191 240 221 217 238 228 254 247 257 272 265 270 266 266 256 216 209 208 204 200 181 170 167 176 178 177 180 186 208 263 294 305 315 316 317 314 311 311
178 249 263 255 259 242 237 255 258 250 251 256 260 263 257 279 285 282 275 271 270 236 219 209 203 184 178 175 166 169 174 175 178 181 204 258 296 314 325 325 318 317 317 315
192 239 252 259 266 259 264 247 261 265 266 261 259 257 273 265 264 261 264 269 267 262 209 196 193 186 179 173 162 162 171 170 174 178 211 288 320 329 329 323 321 320 318 319
238 237 242 251 243 240 248 264 258 256 264 255 253 264 267 264 263 265 245 252 262 240 191 190 178 165 162 156 160 164 165 165 167 170 199 334 329 324 326 325 327 326 322 319
215 228 242 240 231 252 304 259 208 235 262 259 255 259 260 267 295 277 218 225 241 233 197 176 159 155 149 149 155 156 156 157 154 152 115 329 323 324 332 332 330 326 320 319
228 213 217 214 231 232 236 250 240 115 271 262 245 253 262 261 263 272 290 198 178 149 150 146 145 143 142 147 155 151 152 153 147 150 175 280 330 330 330 329 327 328 328 316
175 211 220 223 235 233 229 240 120 205 251 260 239 230 243 232 229 242 146 133 128 139 139 136 143 145 142 148 153 141 146 152 158 154 135 47 341 337 337 333 331 334 331 318
221 194 204 228 239 248 217 155 203 230 246 257 261 227 197 215 233 206 155 157 154 144 142 143 142 140 146 151 151 141 147 154 151 135 109 61 14 4 347 339 344 345 335 315
232 216 225 207 216 217 193 216 219 237 242 261 245 196 213 216 217 180 180 160 159 153 151 148 146 139 149 154 156 147 155 156 148 137 127 96 34 18 3 356 353 341 330 320
220 236 244 253 253 242 225 229 235 227 233 249 241 223 182 212 173 179 163 164 159 155 157 149 146 151 151 155 153 153 151 151 147 143 135 115 50 22 13 8 357 339 325 326
243 77 249 258 262 263 259 241 237 245 248 266 264 209 215 195 197 181 177 175 168 157 159 162 157 159 153 149 153 152 152 151 147 139 127 101 61 29 15 12 356 332 327 331
259 255 255 257 251 242 254 256 251 251 252 246 247 238 224 204 202 172 181 178 168 162 157 163 157 153 151 146 143 154 153 156 153 137 125 106 78 51 26 3 352 4 350 344